Walnut Ridge, AR

7:44 AM CDT on October 20, 2017 (GMT -0500)
Walnut Ridge Regional

Weather History for KARG - March, 2014

Change the Weather History Date:

Friday, March 21, 2014

  Actual Average Record
Temperature  
Mean Temperature 54 °F -  
Max Temperature 68 °F 58 °F 78 °F (1997)
Min Temperature 39 °F 40 °F 26 °F (2013)
Degree Days  
Heating Degree Days 12    
Growing Degree Days 4 (Base 50)    
Moisture  
Dew Point 36 °F    
Average Humidity 54    
Maximum Humidity 81    
Minimum Humidity 24    
Precipitation  
Precipitation 0.00 in - - ()
Sea Level Pressure  
Sea Level Pressure 29.97 in    
Wind  
Wind Speed 10 mph (South)    
Max Wind Speed 22 mph    
Max Gust Speed 23 mph    
Visibility 10 miles    
Events      
Averages and records for this station are not official NWS values.
T = Trace of Precipitation, MM = Missing Value Source: NWS Daily Summary

Daily Weather History Graph

Daily Weather History Graph

Search for Another Location

Airport or City:

Trip Planner

Search our weather history database for the weather conditions in past years. The results will help you decide how hot, cold, wet, or windy it might be!

Date:

Astronomy

Mar. 21, 2014 Rise Set
Actual Time 7:05 AM CDT 7:16 PM CDT
Civil Twilight 6:40 AM CDT 7:41 PM CDT
Nautical Twilight 6:10 AM CDT 8:11 PM CDT
Astronomical Twilight 5:39 AM CDT 8:42 PM CDT
Moon No Moon Rise 10:05 AM CDT (3/21)
Length of Visible Light 13h 01m
Length of Day
12h 10m
Waning Gibbous, 75% of the Moon is Illuminated
Mar 21
Waning Gibbous
Mar 23
Last Quarter
Mar 30
New
Apr 7
First Quarter
Apr 15
Full

Hourly Weather History & Observations

Time (CDT) Temp. Windchill Dew Point Humidity Pressure Visibility Wind Dir Wind Speed Gust Speed Precip Events Conditions
12:15 AM 44.6 °F 40.7 °F 35.6 °F 71% 30.05 in 10.0 mi South 6.9 mph - N/A   Clear
12:35 AM 44.6 °F 41.4 °F 35.6 °F 71% 30.05 in 10.0 mi South 5.8 mph - N/A   Clear
12:55 AM 44.6 °F 40.2 °F 35.6 °F 71% 30.04 in 10.0 mi South 8.1 mph - N/A   Clear
1:15 AM 44.6 °F 40.7 °F 35.6 °F 71% 30.04 in 10.0 mi SSW 6.9 mph - N/A   Clear
1:35 AM 44.6 °F 40.7 °F 35.6 °F 71% 30.04 in 10.0 mi SSW 6.9 mph - N/A   Clear
1:55 AM 42.8 °F 37.5 °F 35.6 °F 76% 30.04 in 10.0 mi SSW 9.2 mph - N/A   Clear
2:15 AM 44.6 °F 39.7 °F 35.6 °F 71% 30.04 in 10.0 mi SSW 9.2 mph - N/A   Clear
2:35 AM 44.6 °F 39.7 °F 33.8 °F 66% 30.03 in 10.0 mi SSW 9.2 mph - N/A   Clear
2:55 AM 42.8 °F 37.5 °F 33.8 °F 70% 30.03 in 10.0 mi SSW 9.2 mph - N/A   Clear
3:15 AM 42.8 °F 37.5 °F 33.8 °F 70% 30.03 in 10.0 mi South 9.2 mph - N/A   Clear
3:35 AM 42.8 °F 38.0 °F 33.8 °F 70% 30.01 in 10.0 mi South 8.1 mph - N/A   Clear
3:55 AM 42.8 °F 38.6 °F 33.8 °F 70% 30.01 in 10.0 mi South 6.9 mph - N/A   Clear
4:15 AM 42.8 °F 39.3 °F 32.0 °F 66% 30.02 in 10.0 mi South 5.8 mph - N/A   Clear
4:35 AM 41.0 °F 36.4 °F 32.0 °F 70% 30.01 in 10.0 mi South 6.9 mph - N/A   Clear
4:55 AM 39.2 °F 34.2 °F 32.0 °F 75% 30.01 in 10.0 mi South 6.9 mph - N/A   Clear
5:15 AM 39.2 °F 34.2 °F 32.0 °F 75% 30.01 in 10.0 mi South 6.9 mph - N/A   Clear
5:35 AM 41.0 °F 35.8 °F 32.0 °F 70% 30.01 in 10.0 mi South 8.1 mph - N/A   Clear
5:55 AM 41.0 °F 36.4 °F 32.0 °F 70% 30.01 in 10.0 mi South 6.9 mph - N/A   Clear
6:15 AM 42.8 °F 38.6 °F 32.0 °F 66% 30.00 in 10.0 mi South 6.9 mph - N/A   Clear
6:35 AM 39.2 °F 34.2 °F 32.0 °F 75% 29.99 in 10.0 mi South 6.9 mph - N/A   Clear
6:55 AM 39.2 °F 33.6 °F 32.0 °F 75% 30.00 in 10.0 mi South 8.1 mph - N/A   Clear
7:15 AM 39.2 °F 35.0 °F 32.0 °F 75% 30.00 in 10.0 mi South 5.8 mph - N/A   Clear
7:35 AM 39.2 °F 34.2 °F 33.8 °F 81% 30.01 in 10.0 mi South 6.9 mph - N/A   Clear
7:55 AM 41.0 °F 35.8 °F 33.8 °F 76% 30.01 in 10.0 mi South 8.1 mph - N/A   Clear
8:15 AM 42.8 °F 37.5 °F 35.6 °F 76% 30.01 in 10.0 mi South 9.2 mph - N/A   Clear
8:35 AM 44.6 °F 39.7 °F 35.6 °F 71% 30.00 in 10.0 mi South 9.2 mph - N/A   Clear
8:55 AM 48.2 °F - 37.4 °F 66% 30.01 in 10.0 mi South 10.4 mph - N/A   Clear
9:15 AM 50.0 °F - 37.4 °F 62% 30.01 in 10.0 mi South 11.5 mph - N/A   Clear
9:35 AM 51.8 °F - 37.4 °F 58% 30.01 in 10.0 mi South 12.7 mph - N/A   Clear
9:55 AM 53.6 °F - 37.4 °F 54% 30.01 in 10.0 mi South 13.8 mph - N/A   Clear
10:15 AM 55.4 °F - 39.2 °F 54% 30.01 in 10.0 mi SSW 15.0 mph - N/A   Clear
10:35 AM 57.2 °F - 39.2 °F 51% 30.00 in 10.0 mi SSW 19.6 mph - N/A   Clear
10:55 AM 57.2 °F - 39.2 °F 51% 30.00 in 10.0 mi South 16.1 mph - N/A   Clear
11:15 AM 59.0 °F - 39.2 °F 48% 30.00 in 10.0 mi SSW 18.4 mph 21.9 mph N/A   Clear
11:35 AM 60.8 °F - 39.2 °F 45% 29.99 in 10.0 mi South 20.7 mph - N/A   Clear
11:55 AM 60.8 °F - 39.2 °F 45% 29.99 in 10.0 mi SSW 17.3 mph - N/A   Clear
12:15 PM 60.8 °F - 39.2 °F 45% 30.00 in 10.0 mi SSW 18.4 mph - N/A   Clear
12:35 PM 62.6 °F - 39.2 °F 42% 29.98 in 10.0 mi South 18.4 mph 23.0 mph N/A   Clear
12:55 PM 62.6 °F - 41.0 °F 45% 29.98 in 10.0 mi SSW 16.1 mph - N/A   Clear
1:15 PM 64.4 °F - 41.0 °F 42% 29.97 in 10.0 mi South 20.7 mph - N/A   Clear
1:35 PM 64.4 °F - 39.2 °F 40% 29.96 in 10.0 mi South 21.9 mph - N/A   Clear
1:55 PM 64.4 °F - 42.8 °F 45% 29.95 in 10.0 mi South 17.3 mph - N/A   Clear
2:15 PM 66.2 °F - 28.4 °F 24% 29.94 in 10.0 mi SSW 18.4 mph - N/A   Clear
2:35 PM 66.2 °F - 32.0 °F 28% 29.93 in 10.0 mi South 18.4 mph 21.9 mph N/A   Clear
2:55 PM 66.2 °F - 32.0 °F 28% 29.93 in 10.0 mi South 17.3 mph 20.7 mph N/A   Clear
3:15 PM 66.2 °F - 33.8 °F 30% 29.91 in 10.0 mi South 18.4 mph - N/A   Clear
3:35 PM 66.2 °F - 32.0 °F 28% 29.90 in 10.0 mi South 16.1 mph - N/A   Clear
3:55 PM 66.2 °F - 33.8 °F 30% 29.90 in 10.0 mi South 17.3 mph - N/A   Clear
4:15 PM 66.2 °F - 37.4 °F 35% 29.90 in 10.0 mi South 17.3 mph - N/A   Clear
4:35 PM 66.2 °F - 37.4 °F 35% 29.90 in 10.0 mi South 16.1 mph - N/A   Clear
4:55 PM 66.2 °F - 37.4 °F 35% 29.89 in 10.0 mi South 16.1 mph - N/A   Clear
5:15 PM 68.0 °F - 39.2 °F 35% 29.88 in 10.0 mi South 17.3 mph - N/A   Clear
5:55 PM 66.2 °F - 35.6 °F 32% 29.88 in 10.0 mi SSW 13.8 mph - N/A   Clear
6:15 PM 66.2 °F - 35.6 °F 32% 29.88 in 10.0 mi SSW 9.2 mph - N/A   Clear
6:35 PM 66.2 °F - 35.6 °F 32% 29.90 in 10.0 mi SW 9.2 mph - N/A   Clear
6:55 PM 64.4 °F - 35.6 °F 34% 29.90 in 10.0 mi SSW 6.9 mph - N/A   Clear
7:15 PM 62.6 °F - 37.4 °F 39% 29.90 in 10.0 mi SSW 5.8 mph - N/A   Clear
7:35 PM 60.8 °F - 37.4 °F 42% 29.90 in 10.0 mi South 5.8 mph - N/A   Clear
7:55 PM 59.0 °F - 37.4 °F 45% 29.90 in 10.0 mi South 5.8 mph - N/A   Clear
8:15 PM 57.2 °F - 37.4 °F 48% 29.90 in 10.0 mi South 8.1 mph - N/A   Clear
8:35 PM 55.4 °F - 37.4 °F 51% 29.90 in 10.0 mi South 10.4 mph - N/A   Clear
8:55 PM 55.4 °F - 39.2 °F 54% 29.91 in 10.0 mi South 9.2 mph - N/A   Clear
9:15 PM 55.4 °F - 37.4 °F 51% 29.91 in 10.0 mi South 10.4 mph - N/A   Clear
9:35 PM 55.4 °F - 37.4 °F 51% 29.92 in 10.0 mi South 6.9 mph - N/A   Clear
9:55 PM 53.6 °F - 37.4 °F 54% 29.92 in 10.0 mi South 6.9 mph - N/A   Clear
10:15 PM 53.6 °F - 37.4 °F 54% 29.92 in 10.0 mi South 9.2 mph - N/A   Clear
10:35 PM 53.6 °F - 37.4 °F 54% 29.92 in 10.0 mi SSW 5.8 mph - N/A   Scattered Clouds
10:55 PM 53.6 °F - 37.4 °F 54% 29.93 in 10.0 mi SSW 6.9 mph - N/A   Scattered Clouds
11:15 PM 53.6 °F - 37.4 °F 54% 29.93 in 10.0 mi SSW 6.9 mph - N/A   Clear
11:35 PM 53.6 °F - 37.4 °F 54% 29.93 in 10.0 mi SSW 8.1 mph - N/A   Clear
11:55 PM 53.6 °F - 37.4 °F 54% 29.94 in 10.0 mi SW 6.9 mph - N/A   Mostly Cloudy